Tracking 29892 objects as of 21-Nov-2024
HD Live streaming from Space Station
objects crossing your sky now

EUCROPIS

Track EUCROPIS now!
10-day predictions


NORAD ID: 43807
Int'l Code: 2018-099BB
Perigee: 540.3 km
Apogee: 551.8 km
Inclination: 97.5 °
Period: 95.4 minutes
Semi major axis: 6917 km
RCS: Unknown
Launch date: December 3, 2018
Source: Germany (GER)
Launch site: AIR FORCE WESTERN TEST RANGE (AFWTR)
Your satellite tracking list
Your tracking list is empty




NASA's NSSDC Master Catalog

Two Line Element Set (TLE):
1 43807U 18099BB  24325.62924909  .00011410  00000-0  72233-3 0  9993
2 43807  97.5047  20.6550 0008281 123.0484 237.1541 15.09109037325609
Source of the keplerian elements: AFSPC